Townsville Observation History
Time Wind Speed Temp Pressure Rel. Hum Rain
03/07:30am SSW 1-4 kts 17.6°c 1020.5 hPa 67% 0.0mm
03/07:00am S 1-5 kts 16.0°c 1020.2 hPa 75% 0.0mm
03/06:30am S 2-4 kts 15.2°c 1019.7 hPa 81% 0.0mm
03/06:00am CALM 0-3 kts 15.6°c 1019.3 hPa 86% 0.0mm
03/05:30am S 5-6 kts 16.5°c 1019.3 hPa 79% 0.0mm
03/05:00am WSW 1-4 kts 17.0°c 1019.1 hPa 80% 0.0mm
03/04:30am S 9-11 kts 18.5°c 1018.8 hPa 71% 0.0mm
03/04:00am SE 9-10 kts 18.7°c 1018.5 hPa 81% 0.0mm
03/03:30am SSE 6-7 kts 17.2°c 1018.6 hPa 89% 0.0mm
03/03:00am SE 6 kts 17.7°c 1018.6 hPa 85% 0.0mm
03/02:30am SE 5-6 kts 18.0°c 1018.8 hPa 80% 0.0mm
03/02:00am SE 4 kts 18.3°c 1018.9 hPa 75% 0.0mm
03/01:30am SE 5 kts 18.2°c 1019.2 hPa 71% 0.0mm
03/01:00am SSE 6-7 kts 17.9°c 1019.3 hPa 75% 0.0mm
03/12:30am SE 6-7 kts 17.7°c 1019.4 hPa 75% 0.0mm
03/12:00am SSE 5 kts 18.0°c 1019.5 hPa 71% 0.0mm
Time Wind Speed Temp Pressure Rel. Hum Rain
02/11:30pm S 6-7 kts 20.5°c 1019.6 hPa 60% 0.0mm
02/11:00pm SSE 4-5 kts 20.2°c 1019.8 hPa 64% 0.0mm
02/10:30pm SE 2-4 kts 19.7°c 1019.8 hPa 77% 0.0mm
02/10:00pm E 5-8 kts 18.4°c 1019.8 hPa 84% 0.0mm
02/09:30pm WSW 2-4 kts 19.1°c 1019.5 hPa 91% 0.0mm
02/09:00pm CALM 0 kts 20.0°c 1019.2 hPa 87% 0.0mm
02/08:30pm CALM 0 kts 19.5°c 1019.1 hPa 87% 0.0mm
02/08:00pm W 6-7 kts 20.6°c 1018.9 hPa 87% 0.0mm
02/07:30pm WSW 3-6 kts 21.5°c 1018.5 hPa 83% 0.0mm
02/07:00pm WSW 3-5 kts 21.5°c 1018.1 hPa 88% 0.0mm
02/06:30pm NE 4-5 kts 21.8°c 1017.8 hPa 82% 0.0mm
02/06:00pm ENE 6 kts 22.1°c 1017.5 hPa 81% 0.0mm
02/05:30pm ENE 7-8 kts 23.7°c 1017.3 hPa 72% 0.0mm
02/05:00pm NE 7-9 kts 25.3°c 1017.1 hPa 66% 0.0mm
02/04:30pm SSE 8-11 kts 27.5°c 1017.0 hPa 38% 0.0mm
02/04:00pm SSW 7-12 kts 28.0°c 1016.8 hPa 37% 0.0mm
02/03:30pm SSE 7-11 kts 28.1°c 1016.7 hPa 36% 0.0mm
02/03:00pm SW 9-13 kts 28.1°c 1016.8 hPa 36% 0.0mm
02/02:30pm SSW 7-12 kts 27.3°c 1016.9 hPa 36% 0.0mm
02/02:00pm SW 9-13 kts 27.6°c 1017.1 hPa 38% 0.0mm
02/01:30pm SW 7-10 kts 27.4°c 1017.3 hPa 40% 0.0mm
02/01:00pm SSW 9-14 kts 26.8°c 1017.8 hPa 45% 0.0mm
02/12:30pm SSW 7-13 kts 26.9°c 1018.2 hPa 46% 0.0mm
02/12:00pm SW 7-11 kts 26.2°c 1018.6 hPa 47% 0.0mm
02/11:30am SSW 12-15 kts 25.8°c 1018.9 hPa 49% 0.0mm
02/11:00am SSW 9-14 kts 24.7°c 1019.3 hPa 54% 0.0mm
02/10:30am SSW 10-14 kts 24.5°c 1019.6 hPa 58% 0.0mm
02/10:00am SSW 11-14 kts 24.1°c 1019.7 hPa 64% 0.0mm
02/09:30am SSW 9-13 kts 22.9°c 1019.6 hPa 69% 0.0mm
02/09:00am SSW 7-12 kts 22.5°c 1019.4 hPa 72% 0.2mm
02/08:30am SW 5-6 kts 22.1°c 1019.3 hPa 86% 0.2mm
02/08:00am WSW 3-5 kts 20.7°c 1019.1 hPa 94% 0.2mm
02/07:30am WNW 3-9 kts 19.7°c 1018.6 hPa 99% 0.2mm
02/07:00am CALM 0 kts 18.6°c 1018.3 hPa 100% 0.2mm
02/06:30am CALM 0 kts 18.0°c 1018.1 hPa 100% 0.2mm
02/06:00am WNW 3-5 kts 18.3°c 1017.8 hPa 100% 0.2mm
02/05:30am CALM 0 kts 18.8°c 1017.5 hPa 99% 0.2mm
02/05:00am S 3-5 kts 18.5°c 1017.2 hPa n/a 0.2mm
02/04:55am S 4-6 kts 18.4°c 1017.2 hPa n/a 0.2mm
02/04:49am SSW 5-6 kts 18.1°c 1017.2 hPa n/a 0.2mm
02/04:30am WSW 4-6 kts 18.1°c 1016.8 hPa n/a 0.0mm
02/04:07am NNW 4-5 kts 17.7°c 1016.7 hPa n/a 0.0mm
02/04:00am NNW 4-5 kts 18.0°c 1016.6 hPa n/a 0.0mm
02/03:30am CALM 0 kts 18.2°c 1016.8 hPa n/a 0.0mm
02/03:06am CALM 0 kts 18.2°c 1016.9 hPa 100% 0.0mm
02/03:00am CALM 0 kts 18.3°c 1017.0 hPa 100% 0.0mm
02/02:30am CALM 0 kts 18.4°c 1017.0 hPa 100% 0.0mm
02/02:15am CALM 0 kts 18.3°c 1017.1 hPa 100% 0.0mm
02/02:00am CALM 0 kts 18.3°c 1017.4 hPa 100% 0.0mm
02/01:55am CALM 0 kts 18.3°c 1017.5 hPa 100% 0.0mm
02/01:47am CALM 0 kts 18.9°c 1017.5 hPa 100% 0.0mm
02/01:30am CALM 0 kts 18.8°c 1017.5 hPa 100% 0.0mm
02/01:29am CALM 0 kts 18.7°c 1017.5 hPa 100% 0.0mm
02/01:00am CALM 0 kts 18.8°c 1017.6 hPa 100% 0.0mm
02/12:52am CALM 0 kts 18.9°c 1017.7 hPa 100% 0.0mm
02/12:31am CALM 0 kts 18.9°c 1017.7 hPa 100% 0.0mm
02/12:30am CALM 0 kts 18.9°c 1017.6 hPa 100% 0.0mm
02/12:04am CALM 0 kts 19.1°c 1017.7 hPa 100% 0.0mm
02/12:00am CALM 0 kts 19.3°c 1017.7 hPa 100% 0.0mm
Time Wind Speed Temp Pressure Rel. Hum Rain
01/11:40pm CALM 0 kts 19.7°c 1017.9 hPa 100% 0.0mm
01/11:30pm CALM 0 kts 19.4°c 1018.0 hPa 99% 0.0mm
01/11:00pm CALM 0 kts 19.7°c 1017.9 hPa 100% 0.0mm
01/10:30pm CALM 0 kts 19.6°c 1018.0 hPa 98% 0.0mm
01/10:00pm WSW 4-5 kts 20.6°c 1017.8 hPa 98% 0.0mm
01/09:30pm SW 2-4 kts 20.9°c 1017.7 hPa 97% 0.0mm
01/09:00pm SSW 5-6 kts 21.2°c 1017.7 hPa 95% 0.0mm
01/08:30pm E 4 kts 21.1°c 1017.6 hPa 97% 0.0mm
01/08:00pm ENE 5-6 kts 21.4°c 1017.4 hPa 96% 0.0mm
01/07:30pm ENE 6-7 kts 21.6°c 1017.2 hPa 95% 0.0mm
01/07:00pm ENE 6-8 kts 22.0°c 1016.8 hPa 95% 0.0mm
01/06:30pm ENE 7-8 kts 22.2°c 1016.5 hPa 93% 0.0mm
01/06:00pm ENE 7-9 kts 22.6°c 1016.1 hPa 91% 0.0mm
01/05:30pm ENE 9-11 kts 23.0°c 1015.9 hPa 89% 0.0mm
01/05:00pm ENE 9-11 kts 23.6°c 1015.9 hPa 87% 0.0mm
01/04:30pm ENE 11-14 kts 23.8°c 1015.8 hPa 84% 0.0mm
01/04:00pm ENE 13-15 kts 24.2°c 1015.6 hPa 83% 0.0mm
01/03:30pm ENE 12-16 kts 24.4°c 1015.8 hPa 82% 0.0mm
01/03:00pm ENE 13-16 kts 24.7°c 1015.6 hPa 78% 0.0mm
01/02:30pm ENE 11-14 kts 25.3°c 1015.6 hPa 77% 0.0mm
01/02:00pm NE 11-14 kts 25.8°c 1015.7 hPa 73% 0.0mm
01/01:30pm ENE 10-13 kts 25.7°c 1016.1 hPa 69% 0.0mm
01/01:00pm NE 10-12 kts 26.1°c 1016.5 hPa 65% 0.0mm
01/12:30pm NE 10-12 kts 25.8°c 1017.0 hPa 67% 0.0mm
01/12:00pm NE 9-12 kts 25.7°c 1017.4 hPa 69% 0.0mm
01/11:30am ENE 9-11 kts 25.4°c 1017.8 hPa 69% 0.0mm
01/11:00am NE 8-10 kts 25.3°c 1018.1 hPa 70% 0.0mm
01/10:30am S 6-8 kts 25.9°c 1018.3 hPa 68% 0.0mm
01/10:00am SE 4-7 kts 24.5°c 1018.7 hPa 75% 0.0mm
01/09:30am SE 4-5 kts 23.4°c 1018.6 hPa 74% 0.0mm
01/09:00am SSE 1-4 kts 22.8°c 1018.4 hPa 79% 0.0mm
01/08:30am CALM 0 kts 21.2°c 1018.3 hPa 88% 0.0mm
01/08:00am CALM 0 kts 19.2°c 1018.2 hPa 94% 0.0mm
01/07:30am CALM 0-1 kts 17.9°c 1017.9 hPa 100% 0.0mm
01/07:00am CALM 0-1 kts 16.7°c 1017.6 hPa 100% 0.0mm
01/06:30am CALM 0 kts 17.0°c 1017.3 hPa 100% 0.0mm
01/06:00am CALM 0 kts 16.7°c 1017.1 hPa 100% 0.0mm
01/05:30am CALM 0 kts 17.0°c 1017.1 hPa 100% 0.0mm
01/05:00am CALM 0 kts 17.1°c 1016.9 hPa 100% 0.0mm
01/04:30am CALM 0-4 kts 17.1°c 1016.8 hPa 100% 0.0mm
01/04:00am CALM 0 kts 17.1°c 1016.8 hPa 100% 0.0mm
01/03:30am NNW 3-4 kts 17.4°c 1017.0 hPa 100% 0.0mm
01/03:00am CALM 0 kts 18.0°c 1017.1 hPa 99% 0.0mm
01/02:30am S 3-4 kts 18.2°c 1017.4 hPa 97% 0.0mm
01/02:00am CALM 0 kts 18.7°c 1017.7 hPa 98% 0.0mm
01/01:30am CALM 0 kts 18.9°c 1018.0 hPa 98% 0.0mm
01/01:00am CALM 0-1 kts 19.0°c 1018.4 hPa 99% 0.0mm
01/12:30am W 5-6 kts 18.9°c 1018.5 hPa 100% 0.0mm
01/12:00am WSW 3-6 kts 19.1°c 1018.5 hPa 94% 0.0mm